IW1QQG-13 Weather Reports


time (UTC)temp
C
wind
direction
speed
KPH
gust
KPH
rain 1hr
cm
rain 24hr
cm
rain mn
cm
humidity
%
barometer
mb
20260507234610 13 229 4.8 4.8 0.00 0.00 0.00 81 1014.9
20260507233610 13 351 4.8 4.8 0.00 0.00 0.00 81 1014.9
20260507231610 12 270 1.6 1.6 0.00 0.00 0.00 89 1015.2
20260507230610 12 211 0.0 1.6 0.00 0.00 0.00 90 1015.2
20260507225610 12 212 1.6 1.6 0.00 0.00 0.00 88 1015.2
20260507224610 12 200 0.0 0.0 0.00 0.00 0.00 87 1015.2
20260507223610 13 195 0.0 0.0 0.00 0.00 0.00 85 1015.2
20260507222610 13 214 4.8 4.8 0.00 0.00 0.00 82 1015.2
20260507221610 13 226 0.0 0.0 0.00 0.00 0.00 85 1015.2
20260507220610 13 234 0.0 1.6 0.00 0.00 0.00 84 1015.2
20260507215610 13 218 0.0 1.6 0.00 0.00 0.00 84 1015.2
20260507214610 13 333 4.8 4.8 0.00 0.00 0.00 83 1015.2
20260507213610 13 200 0.0 0.0 0.00 0.00 0.00 84 1015.2
20260507212608 13 327 4.8 4.8 0.00 0.00 0.00 83 1014.9
20260507211608 12 318 1.6 1.6 0.00 0.00 0.00 88 1015.2
20260507205608 13 218 0.0 0.0 0.00 0.00 0.00 85 1014.9
20260507204608 13 334 3.2 3.2 0.00 0.00 0.00 82 1014.9
20260507203608 13 308 0.0 1.6 0.00 0.00 0.00 84 1014.9
20260507202608 13 338 4.8 4.8 0.00 0.00 0.00 84 1014.9
20260507201608 13 263 1.6 1.6 0.00 0.00 0.00 86 1014.9
20260507200608 13 192 0.0 0.0 0.00 0.00 0.00 88 1014.9
20260507195608 12 213 0.0 0.0 0.00 0.00 0.00 92 1014.9
20260507194608 12 204 0.0 0.0 0.00 0.00 0.00 90 1014.9
20260507193608 13 194 0.0 0.0 0.00 0.00 0.00 87 1014.9
20260507192608 13 310 1.6 1.6 0.00 0.00 0.00 87 1014.6
20260507191608 13 320 4.8 4.8 0.00 0.00 0.00 89 1014.6
20260507190608 13 203 1.6 1.6 0.00 0.00 0.00 89 1014.6
20260507185608 13 203 0.0 0.0 0.00 0.00 0.00 89 1014.6
20260507184608 13 205 0.0 0.0 0.00 0.00 0.00 88 1014.2
20260507183608 13 197 0.0 1.6 0.00 0.00 0.00 87 1014.2
20260507182608 14 206 0.0 0.0 0.00 0.00 0.00 85 1014.2
20260507181608 14 205 0.0 0.0 0.00 0.00 0.00 84 1014.2
20260507180608 15 247 3.2 3.2 0.00 0.00 0.00 82 1014.2
20260507175608 15 204 0.0 0.0 0.00 0.00 0.00 81 1014.2
20260507174608 15 195 0.0 1.6 0.00 0.00 0.00 78 1013.9
20260507173608 15 207 0.0 1.6 0.00 0.00 0.00 79 1013.9
20260507172608 15 203 0.0 1.6 0.00 0.00 0.00 77 1014.2
20260507171608 15 196 0.0 1.6 0.00 0.00 0.00 77 1013.9
20260507165608 16 179 3.2 3.2 0.00 0.00 0.00 76 1014.2
20260507162608 16 200 1.6 1.6 0.00 0.00 0.00 72 1014.2
20260507161608 17 175 1.6 4.8 0.00 0.00 0.00 68 1014.2
20260507160608 17 138 0.0 0.0 0.00 0.00 0.00 65 1013.9
20260507155607 17 189 1.6 3.2 0.00 0.00 0.00 66 1013.9
20260507154608 17 190 1.6 4.8 0.00 0.00 0.00 67 1013.9
20260507153607 17 175 3.2 4.8 0.00 0.00 0.00 65 1013.9
20260507152607 18 141 3.2 3.2 0.00 0.00 0.00 67 1013.9
20260507151608 18 189 3.2 3.2 0.00 0.00 0.00 62 1013.9
20260507150607 18 230 3.2 4.8 0.00 0.00 0.00 63 1013.9
20260507145607 18 203 3.2 4.8 0.00 0.00 0.00 61 1013.9
20260507144608 19 202 1.6 1.6 0.00 0.00 0.00 65 1013.9
20260507143607 18 47 4.8 6.4 0.00 0.00 0.00 66 1014.2
20260507142608 19 170 4.8 4.8 0.00 0.00 0.00 63 1014.2
20260507141610 19 169 1.6 1.6 0.00 0.00 0.00 63 1014.2
20260507140611 20 216 3.2 3.2 0.00 0.00 0.00 59 1014.6
20260507135607 20 133 6.4 8.0 0.00 0.00 0.00 58 1014.6
20260507134607 19 109 1.6 3.2 0.00 0.00 0.00 59 1014.6
20260507133607 19 100 3.2 3.2 0.00 0.00 0.00 60 1014.6
20260507132607 19 180 4.8 4.8 0.00 0.00 0.00 61 1014.6
20260507131607 20 173 1.6 3.2 0.00 0.00 0.00 59 1014.9
20260507130607 20 133 4.8 4.8 0.00 0.00 0.00 60 1014.9
20260507125607 20 194 6.4 9.7 0.00 0.00 0.00 64 1014.9
20260507124608 19 128 3.2 4.8 0.00 0.00 0.00 63 1014.9
20260507123607 19 139 4.8 4.8 0.00 0.00 0.00 64 1014.6
20260507122607 19 96 3.2 4.8 0.00 0.00 0.00 65 1014.6
20260507121607 20 253 1.6 3.2 0.00 0.00 0.00 66 1014.6
20260507120607 20 111 4.8 4.8 0.00 0.00 0.00 66 1014.6
20260507115607 20 148 3.2 4.8 0.00 0.00 0.00 66 1014.6
20260507114607 20 122 4.8 4.8 0.00 0.00 0.00 68 1014.2
20260507113607 20 144 4.8 4.8 0.00 0.00 0.00 67 1014.6
20260507112613 20 185 3.2 4.8 0.00 0.00 0.00 70 1014.6
20260507111607 20 169 0.0 4.8 0.00 0.00 0.00 70 1014.6
20260507110607 20 198 3.2 3.2 0.00 0.00 0.00 68 1014.6
20260507105607 20 170 4.8 4.8 0.00 0.00 0.00 67 1014.6
20260507104607 20 161 4.8 6.4 0.00 0.00 0.00 67 1014.6
20260507103607 19 182 3.2 4.8 0.00 0.00 0.00 66 1014.6
20260507102607 20 80 4.8 4.8 0.00 0.00 0.00 67 1014.6
20260507101607 20 198 4.8 6.4 0.00 0.00 0.00 67 1014.6
20260507100607 20 0 4.8 6.4 0.00 0.00 0.00 66 1014.9
20260507095607 20 175 4.8 6.4 0.00 0.00 0.00 68 1014.6
20260507094607 19 357 3.2 3.2 0.00 0.00 0.00 68 1014.6
20260507093607 18 174 3.2 4.8 0.00 0.00 0.00 72 1014.6
20260507091607 18 90 3.2 3.2 0.00 0.00 0.00 71 1014.6
20260507090607 18 253 4.8 4.8 0.00 0.00 0.00 70 1014.6
20260507085607 18 180 6.4 8.0 0.00 0.00 0.00 71 1014.6
20260507084607 18 90 4.8 4.8 0.00 0.00 0.00 71 1014.6
20260507083607 19 148 1.6 3.2 0.00 0.00 0.00 68 1014.2
20260507082607 18 184 3.2 4.8 0.00 0.00 0.00 68 1014.2
20260507081607 18 152 4.8 4.8 0.00 0.00 0.00 67 1014.2
20260507080607 19 95 0.0 1.6 0.00 0.00 0.00 66 1014.2
20260507075607 19 199 3.2 4.8 0.00 0.00 0.00 65 1013.9
20260507074607 19 189 1.6 3.2 0.00 0.00 0.00 64 1014.2
20260507073607 18 154 3.2 4.8 0.00 0.00 0.00 63 1014.2
20260507072607 18 181 4.8 4.8 0.00 0.00 0.00 66 1013.9
20260507071607 18 225 1.6 3.2 0.00 0.00 0.00 66 1013.9
20260507070607 18 172 3.2 4.8 0.00 0.00 0.00 66 1013.9
20260507065607 17 153 3.2 3.2 0.00 0.00 0.00 66 1013.5
20260507064607 17 132 1.6 4.8 0.00 0.00 0.00 69 1013.5
20260507063607 18 181 1.6 1.6 0.00 0.00 0.00 69 1013.5
20260507062607 17 157 1.6 1.6 0.00 0.00 0.00 71 1013.5
20260507061607 16 25 3.2 4.8 0.00 0.00 0.00 71 1013.2
20260507060607 16 21 4.8 4.8 0.00 0.00 0.00 72 1013.2
20260507055607 15 26 4.8 6.4 0.00 0.00 0.00 71 1013.2
20260507054607 15 0 4.8 4.8 0.00 0.00 0.00 70 1013.2
20260507053607 15 2 1.6 3.2 0.00 0.00 0.00 74 1012.9
20260507052607 15 272 3.2 3.2 0.00 0.00 0.00 72 1012.9
20260507051607 15 339 1.6 3.2 0.00 0.00 0.00 72 1012.9
20260507050607 13 339 3.2 3.2 0.00 0.00 0.00 77 1012.5
20260507045607 12 279 3.2 3.2 0.00 0.00 0.00 81 1012.5
20260507044607 11 202 1.6 1.6 0.00 0.00 0.00 85 1012.5
20260507043607 11 201 0.0 0.0 0.00 0.00 0.00 86 1012.2
20260507042607 12 232 1.6 3.2 0.00 0.00 0.00 83 1012.2
20260507041607 12 219 0.0 1.6 0.00 0.00 0.00 83 1012.2
20260507040607 12 226 1.6 1.6 0.00 0.00 0.00 84 1012.2
20260507035607 11 314 1.6 1.6 0.00 0.00 0.00 88 1012.2
20260507034607 12 224 0.0 1.6 0.00 0.00 0.00 86 1012.2
20260507033607 12 213 0.0 0.0 0.00 0.00 0.00 85 1011.9
20260507032607 11 317 1.6 1.6 0.00 0.00 0.00 88 1011.9
20260507031607 11 202 3.2 4.8 0.00 0.00 0.00 88 1011.9
20260507030608 11 241 1.6 1.6 0.00 0.00 0.00 90 1011.9
20260507025607 12 207 1.6 1.6 0.00 0.00 0.00 89 1011.9
20260507024607 11 233 0.0 1.6 0.00 0.00 0.00 89 1011.9
20260507023607 12 203 0.0 0.0 0.00 0.00 0.00 86 1011.9
20260507022607 12 265 3.2 4.8 0.00 0.00 0.00 80 1011.9
20260507021607 12 250 1.6 3.2 0.00 0.00 0.00 80 1011.9
20260507020607 12 239 4.8 4.8 0.00 0.00 0.00 82 1011.9
20260507015607 12 219 1.6 1.6 0.00 0.00 0.00 82 1011.5
20260507014607 12 214 0.0 0.0 0.00 0.00 0.00 80 1011.5
20260507013607 12 233 1.6 1.6 0.00 0.00 0.00 82 1011.2
20260507012607 13 198 0.0 0.0 0.00 0.00 0.00 77 1011.2
20260507011607 13 358 4.8 6.4 0.00 0.00 0.00 76 1011.5
20260507010607 12 224 0.0 1.6 0.00 0.00 0.00 80 1011.5
20260507005607 12 224 1.6 1.6 0.00 0.00 0.00 80 1011.5
20260507004607 12 211 0.0 0.0 0.00 0.00 0.00 79 1011.5
20260507003607 12 203 0.0 0.0 0.00 0.00 0.00 81 1011.5
20260507002607 13 186 3.2 4.8 0.00 0.00 0.00 75 1011.5
20260507001607 13 347 3.2 3.2 0.00 0.00 0.00 78 1011.5
20260507000607 13 206 0.0 1.6 0.00 0.00 0.00 80 1011.5
20260506235607 13 194 0.0 3.2 0.00 0.00 0.00 78 1011.5